| time (UTC) | temp C | wind direction | speed KPH | gust KPH | rain 1hr cm | rain 24hr cm | rain mn cm | humidity % | barometer mb |
| 20260505063436 | 12 | 67 | 3.2 | 4.8 | 0.00 | 0.00 | 0.00 | 88 | 1024.7 |
| 20260505062933 | 12 | 111 | 3.2 | 11.3 | 0.00 | 0.00 | 0.00 | 87 | 1024.5 |
| 20260505062430 | 12 | 180 | 3.2 | 3.2 | 0.00 | 0.00 | 0.00 | 87 | 1024.5 |
| 20260505061927 | 12 | 131 | 1.6 | 6.4 | 0.00 | 0.00 | 0.00 | 87 | 1024.4 |
| 20260505061425 | 12 | 204 | 1.6 | 3.2 | 0.00 | 0.00 | 0.00 | 87 | 1024.4 |
| 20260505060922 | 12 | 66 | 1.6 | 6.4 | 0.00 | 0.00 | 0.00 | 87 | 1024.2 |
| 20260505060419 | 12 | 81 | 3.2 | 6.4 | 0.00 | 0.00 | 0.00 | 86 | 1024.3 |
| 20260505055915 | 12 | 121 | 3.2 | 9.7 | 0.00 | 0.00 | 0.00 | 86 | 1024.2 |
| 20260505055412 | 12 | 153 | 3.2 | 9.7 | 0.00 | 0.00 | 0.00 | 85 | 1024.4 |
| 20260505054908 | 12 | 154 | 1.6 | 9.7 | 0.00 | 0.00 | 0.00 | 85 | 1023.9 |
| 20260505054406 | 12 | 168 | 4.8 | 12.9 | 0.00 | 0.00 | 0.00 | 85 | 1024.0 |
| 20260505053904 | 12 | 205 | 3.2 | 9.7 | 0.00 | 0.00 | 0.00 | 84 | 1024.0 |
| 20260505053401 | 12 | 351 | 6.4 | 12.9 | 0.00 | 0.00 | 0.00 | 84 | 1023.9 |
| 20260505052857 | 12 | 193 | 4.8 | 11.3 | 0.00 | 0.00 | 0.00 | 83 | 1023.9 |
| 20260505052354 | 13 | 108 | 1.6 | 9.7 | 0.00 | 0.00 | 0.00 | 82 | 1023.9 |
| 20260505051852 | 13 | 178 | 1.6 | 9.7 | 0.00 | 0.00 | 0.00 | 82 | 1024.0 |
| 20260505051348 | 13 | 94 | 6.4 | 11.3 | 0.00 | 0.00 | 0.00 | 81 | 1023.9 |
| 20260505050847 | 13 | 347 | 4.8 | 14.5 | 0.00 | 0.00 | 0.00 | 81 | 1023.5 |
| 20260505050345 | 13 | 286 | 1.6 | 11.3 | 0.00 | 0.00 | 0.00 | 81 | 1023.7 |
| 20260505041312 | 15 | 90 | 4.8 | 6.4 | 0.00 | 0.00 | 0.00 | 74 | 1023.3 |
| 20260505040809 | 15 | 158 | 9.7 | 16.1 | 0.00 | 0.00 | 0.00 | 74 | 1023.3 |
| 20260505040307 | 15 | 209 | 8.0 | 11.3 | 0.00 | 0.00 | 0.00 | 73 | 1023.2 |
| 20260505035803 | 16 | 13 | 9.7 | 14.5 | 0.00 | 0.00 | 0.00 | 72 | 1022.9 |
| 20260505035259 | 16 | 110 | 6.4 | 12.9 | 0.00 | 0.00 | 0.00 | 71 | 1023.1 |
| 20260505034756 | 16 | 27 | 3.2 | 14.5 | 0.00 | 0.00 | 0.00 | 70 | 1023.1 |
| 20260505034253 | 16 | 77 | 4.8 | 16.1 | 0.00 | 0.00 | 0.00 | 70 | 1022.6 |
| 20260505033750 | 16 | 29 | 8.0 | 14.5 | 0.00 | 0.00 | 0.00 | 69 | 1022.7 |
| 20260505033248 | 17 | 179 | 8.0 | 12.9 | 0.00 | 0.00 | 0.00 | 68 | 1022.6 |
| 20260505032745 | 17 | 65 | 4.8 | 16.1 | 0.00 | 0.00 | 0.00 | 67 | 1022.5 |
| 20260505032241 | 17 | 52 | 6.4 | 11.3 | 0.00 | 0.00 | 0.00 | 67 | 1022.4 |
| 20260505031739 | 17 | 193 | 6.4 | 11.3 | 0.00 | 0.00 | 0.00 | 66 | 1022.6 |
| 20260505031235 | 17 | 223 | 4.8 | 11.3 | 0.00 | 0.00 | 0.00 | 66 | 1022.5 |
| 20260505030732 | 17 | 219 | 6.4 | 9.7 | 0.00 | 0.00 | 0.00 | 65 | 1022.4 |
| 20260505030228 | 18 | 328 | 3.2 | 6.4 | 0.00 | 0.00 | 0.00 | 64 | 1022.4 |
| 20260505025724 | 18 | 144 | 3.2 | 16.1 | 0.00 | 0.00 | 0.00 | 63 | 1022.2 |
| 20260505025222 | 18 | 207 | 6.4 | 9.7 | 0.00 | 0.00 | 0.00 | 63 | 1022.1 |
| 20260505024720 | 19 | 154 | 6.4 | 11.3 | 0.00 | 0.00 | 0.00 | 62 | 1022.0 |
| 20260505024217 | 19 | 111 | 6.4 | 11.3 | 0.00 | 0.00 | 0.00 | 62 | 1022.2 |
| 20260505023714 | 19 | 149 | 4.8 | 14.5 | 0.00 | 0.00 | 0.00 | 61 | 1021.7 |
| 20260505023211 | 20 | 190 | 6.4 | 11.3 | 0.00 | 0.00 | 0.00 | 60 | 1022.1 |
| 20260505022709 | 20 | 190 | 3.2 | 4.8 | 0.00 | 0.00 | 0.00 | 60 | 1022.0 |
| 20260505022205 | 20 | 156 | 4.8 | 11.3 | 0.00 | 0.00 | 0.00 | 58 | 1021.8 |
| 20260505021702 | 21 | 190 | 3.2 | 6.4 | 0.00 | 0.00 | 0.00 | 58 | 1022.0 |
| 20260505021159 | 21 | 207 | 3.2 | 6.4 | 0.00 | 0.00 | 0.00 | 57 | 1022.0 |
| 20260505020655 | 21 | 169 | 3.2 | 9.7 | 0.00 | 0.00 | 0.00 | 56 | 1021.9 |
| 20260505020151 | 21 | 166 | 4.8 | 6.4 | 0.00 | 0.00 | 0.00 | 55 | 1022.0 |
| 20260505015648 | 22 | 182 | 3.2 | 9.7 | 0.00 | 0.00 | 0.00 | 54 | 1021.9 |
| 20260505015145 | 23 | 165 | 4.8 | 11.3 | 0.00 | 0.00 | 0.00 | 52 | 1022.0 |
| 20260505014641 | 23 | 196 | 3.2 | 6.4 | 0.00 | 0.00 | 0.00 | 51 | 1021.7 |
| 20260505014139 | 25 | 182 | 3.2 | 6.4 | 0.00 | 0.00 | 0.00 | 51 | 1022.1 |
| 20260505013636 | 25 | 107 | 1.6 | 3.2 | 0.00 | 0.00 | 0.00 | 52 | 1021.9 |
| 20260505013133 | 25 | 84 | 1.6 | 4.8 | 0.00 | 0.00 | 0.00 | 52 | 1021.8 |
| 20260505012631 | 26 | 158 | 0.0 | 6.4 | 0.00 | 0.00 | 0.00 | 50 | 1021.8 |
| 20260505012128 | 26 | 35 | 1.6 | 3.2 | 0.00 | 0.00 | 0.00 | 49 | 1021.8 |
| 20260505011623 | 26 | 126 | 1.6 | 4.8 | 0.00 | 0.00 | 0.00 | 49 | 1021.8 |
| 20260505011121 | 26 | 103 | 1.6 | 1.6 | 0.00 | 0.00 | 0.00 | 49 | 1021.9 |
| 20260505010616 | 25 | 181 | 0.0 | 1.6 | 0.00 | 0.00 | 0.00 | 52 | 1021.8 |
| 20260505010113 | 25 | 91 | 6.4 | 9.7 | 0.00 | 0.00 | 0.00 | 53 | 1022.1 |
| 20260505005609 | 25 | 117 | 4.8 | 6.4 | 0.00 | 0.00 | 0.00 | 53 | 1021.8 |
| 20260505005107 | 25 | 149 | 3.2 | 4.8 | 0.00 | 0.00 | 0.00 | 53 | 1022.1 |
| 20260505004604 | 25 | 167 | 0.0 | 6.4 | 0.00 | 0.00 | 0.00 | 53 | 1022.1 |
| 20260505004100 | 26 | 151 | 3.2 | 4.8 | 0.00 | 0.00 | 0.00 | 51 | 1022.1 |
| 20260505003558 | 25 | 141 | 0.0 | 3.2 | 0.00 | 0.00 | 0.00 | 52 | 1022.1 |
| 20260505003055 | 25 | 184 | 0.0 | 4.8 | 0.00 | 0.00 | 0.00 | 54 | 1022.1 |
| 20260505002555 | 25 | 182 | 0.0 | 1.6 | 0.00 | 0.00 | 0.00 | 54 | 1022.2 |
| 20260505002055 | 25 | 74 | 1.6 | 3.2 | 0.00 | 0.00 | 0.00 | 53 | 1022.1 |
| 20260505001551 | 25 | 97 | 1.6 | 6.4 | 0.00 | 0.00 | 0.00 | 53 | 1021.8 |
| 20260505001048 | 25 | 105 | 1.6 | 4.8 | 0.00 | 0.00 | 0.00 | 54 | 1022.2 |
| 20260505000546 | 25 | 107 | 4.8 | 11.3 | 0.00 | 0.00 | 0.00 | 53 | 1022.3 |
| 20260505000043 | 25 | 97 | 4.8 | 6.4 | 0.00 | 0.00 | 0.00 | 54 | 1022.2 |
| 20260504235540 | 25 | 169 | 0.0 | 3.2 | 0.00 | 0.00 | 0.00 | 54 | 1022.4 |
| 20260504235037 | 25 | 140 | 0.0 | 3.2 | 0.00 | 0.00 | 0.00 | 53 | 1022.4 |
| 20260504234534 | 25 | 104 | 1.6 | 3.2 | 0.00 | 0.00 | 0.00 | 54 | 1022.6 |
| 20260504234031 | 26 | 65 | 3.2 | 4.8 | 0.00 | 0.00 | 0.00 | 50 | 1022.3 |
| 20260504233526 | 25 | 195 | 0.0 | 1.6 | 0.00 | 0.00 | 0.00 | 55 | 1022.4 |
| 20260504233023 | 25 | 89 | 1.6 | 4.8 | 0.00 | 0.00 | 0.00 | 54 | 1022.3 |
| 20260504232520 | 25 | 101 | 3.2 | 4.8 | 0.00 | 0.00 | 0.00 | 54 | 1022.4 |
| 20260504232018 | 24 | 131 | 1.6 | 4.8 | 0.00 | 0.00 | 0.00 | 55 | 1022.5 |
| 20260504231514 | 24 | 97 | 4.8 | 6.4 | 0.00 | 0.00 | 0.00 | 56 | 1022.4 |
| 20260504231010 | 24 | 158 | 0.0 | 1.6 | 0.00 | 0.00 | 0.00 | 56 | 1022.3 |
| 20260504230507 | 23 | 171 | 0.0 | 0.0 | 0.00 | 0.00 | 0.00 | 59 | 1022.4 |
| 20260504230006 | 24 | 78 | 4.8 | 6.4 | 0.00 | 0.00 | 0.00 | 54 | 1022.5 |
| 20260504225502 | 25 | 137 | 3.2 | 4.8 | 0.00 | 0.00 | 0.00 | 56 | 1022.3 |
| 20260504224959 | 25 | 189 | 0.0 | 0.0 | 0.00 | 0.00 | 0.00 | 56 | 1022.6 |
| 20260504224455 | 25 | 196 | 0.0 | 0.0 | 0.00 | 0.00 | 0.00 | 54 | 1022.9 |
| 20260504223953 | 25 | 187 | 0.0 | 1.6 | 0.00 | 0.00 | 0.00 | 56 | 1022.7 |
| 20260504223449 | 24 | 156 | 1.6 | 3.2 | 0.00 | 0.00 | 0.00 | 58 | 1022.8 |
| 20260504222945 | 23 | 174 | 0.0 | 3.2 | 0.00 | 0.00 | 0.00 | 57 | 1022.6 |
| 20260504222443 | 24 | 159 | 0.0 | 1.6 | 0.00 | 0.00 | 0.00 | 56 | 1023.0 |
| 20260504221940 | 23 | 306 | 1.6 | 1.6 | 0.00 | 0.00 | 0.00 | 61 | 1023.0 |
| 20260504221437 | 23 | 167 | 0.0 | 1.6 | 0.00 | 0.00 | 0.00 | 57 | 1023.2 |
| 20260504220934 | 24 | 182 | 0.0 | 1.6 | 0.00 | 0.00 | 0.00 | 57 | 1023.1 |
| 20260504220430 | 23 | 186 | 0.0 | 0.0 | 0.00 | 0.00 | 0.00 | 56 | 1023.2 |
| 20260504215928 | 23 | 191 | 0.0 | 1.6 | 0.00 | 0.00 | 0.00 | 60 | 1023.4 |
| 20260504215424 | 23 | 177 | 0.0 | 0.0 | 0.00 | 0.00 | 0.00 | 57 | 1023.4 |
| 20260504214921 | 23 | 129 | 1.6 | 3.2 | 0.00 | 0.00 | 0.00 | 60 | 1023.4 |
| 20260504214417 | 23 | 159 | 0.0 | 4.8 | 0.00 | 0.00 | 0.00 | 57 | 1023.4 |
| 20260504213914 | 24 | 130 | 3.2 | 4.8 | 0.00 | 0.00 | 0.00 | 55 | 1023.6 |
| 20260504213410 | 24 | 197 | 0.0 | 1.6 | 0.00 | 0.00 | 0.00 | 57 | 1023.4 |
| 20260504212908 | 23 | 305 | 0.0 | 1.6 | 0.00 | 0.00 | 0.00 | 59 | 1023.6 |
| 20260504212403 | 22 | 182 | 0.0 | 1.6 | 0.00 | 0.00 | 0.00 | 60 | 1023.6 |
| 20260504211901 | 22 | 197 | 0.0 | 1.6 | 0.00 | 0.00 | 0.00 | 61 | 1023.7 |
| 20260504211357 | 22 | 176 | 0.0 | 0.0 | 0.00 | 0.00 | 0.00 | 60 | 1023.7 |
| 20260504210855 | 23 | 192 | 0.0 | 4.8 | 0.00 | 0.00 | 0.00 | 60 | 1023.9 |
| 20260504210351 | 22 | 176 | 0.0 | 1.6 | 0.00 | 0.00 | 0.00 | 59 | 1023.9 |
| 20260504205848 | 22 | 180 | 0.0 | 0.0 | 0.00 | 0.00 | 0.00 | 60 | 1023.9 |
| 20260504205346 | 22 | 204 | 0.0 | 1.6 | 0.00 | 0.00 | 0.00 | 62 | 1024.0 |
| 20260504204844 | 21 | 197 | 1.6 | 4.8 | 0.00 | 0.00 | 0.00 | 59 | 1024.0 |
| 20260504204343 | 22 | 171 | 0.0 | 1.6 | 0.00 | 0.00 | 0.00 | 61 | 1024.2 |
| 20260504203842 | 22 | 159 | 1.6 | 1.6 | 0.00 | 0.00 | 0.00 | 61 | 1024.1 |
| 20260504203338 | 21 | 198 | 0.0 | 1.6 | 0.00 | 0.00 | 0.00 | 62 | 1024.3 |
| 20260504202833 | 22 | 229 | 0.0 | 1.6 | 0.00 | 0.00 | 0.00 | 62 | 1024.4 |
| 20260504202331 | 22 | 191 | 0.0 | 0.0 | 0.00 | 0.00 | 0.00 | 60 | 1024.4 |
| 20260504201828 | 22 | 183 | 0.0 | 1.6 | 0.00 | 0.00 | 0.00 | 62 | 1024.5 |
| 20260504201325 | 20 | 184 | 0.0 | 1.6 | 0.00 | 0.00 | 0.00 | 65 | 1024.5 |
| 20260504200822 | 21 | 213 | 0.0 | 1.6 | 0.00 | 0.00 | 0.00 | 65 | 1024.6 |
| 20260504200319 | 21 | 167 | 0.0 | 1.6 | 0.00 | 0.00 | 0.00 | 63 | 1024.4 |
| 20260504195815 | 21 | 223 | 0.0 | 1.6 | 0.00 | 0.00 | 0.00 | 62 | 1024.4 |
| 20260504195311 | 21 | 203 | 0.0 | 1.6 | 0.00 | 0.00 | 0.00 | 63 | 1024.5 |
| 20260504194808 | 21 | 194 | 0.0 | 1.6 | 0.00 | 0.00 | 0.00 | 62 | 1024.8 |
| 20260504194304 | 21 | 181 | 0.0 | 3.2 | 0.00 | 0.00 | 0.00 | 65 | 1024.8 |
| 20260504193800 | 20 | 197 | 0.0 | 1.6 | 0.00 | 0.00 | 0.00 | 63 | 1024.9 |
| 20260504193258 | 21 | 196 | 0.0 | 3.2 | 0.00 | 0.00 | 0.00 | 64 | 1024.7 |
| 20260504192756 | 21 | 191 | 3.2 | 6.4 | 0.00 | 0.00 | 0.00 | 61 | 1024.9 |
| 20260504192254 | 20 | 184 | 1.6 | 4.8 | 0.00 | 0.00 | 0.00 | 62 | 1024.7 |
| 20260504191753 | 20 | 157 | 0.0 | 1.6 | 0.00 | 0.00 | 0.00 | 67 | 1024.9 |
| 20260504191249 | 20 | 183 | 0.0 | 1.6 | 0.00 | 0.00 | 0.00 | 65 | 1025.0 |
| 20260504190744 | 21 | 219 | 0.0 | 4.8 | 0.00 | 0.00 | 0.00 | 63 | 1024.8 |
| 20260504190241 | 20 | 185 | 0.0 | 6.4 | 0.00 | 0.00 | 0.00 | 64 | 1025.1 |
| 20260504185738 | 20 | 189 | 1.6 | 4.8 | 0.00 | 0.00 | 0.00 | 63 | 1025.0 |
| 20260504185235 | 20 | 222 | 0.0 | 3.2 | 0.00 | 0.00 | 0.00 | 64 | 1025.1 |
| 20260504184731 | 20 | 208 | 0.0 | 3.2 | 0.00 | 0.00 | 0.00 | 64 | 1025.2 |
| 20260504184227 | 20 | 183 | 3.2 | 4.8 | 0.00 | 0.00 | 0.00 | 63 | 1025.1 |
| 20260504183723 | 20 | 189 | 0.0 | 3.2 | 0.00 | 0.00 | 0.00 | 65 | 1025.2 |
| 20260504183220 | 20 | 182 | 1.6 | 3.2 | 0.00 | 0.00 | 0.00 | 62 | 1025.1 |
| 20260504182718 | 20 | 312 | 0.0 | 6.4 | 0.00 | 0.00 | 0.00 | 64 | 1025.0 |
| 20260504182215 | 20 | 191 | 0.0 | 0.0 | 0.00 | 0.00 | 0.00 | 64 | 1025.1 |
| 20260504181712 | 20 | 186 | 0.0 | 0.0 | 0.00 | 0.00 | 0.00 | 66 | 1025.3 |
| 20260504181210 | 19 | 193 | 0.0 | 1.6 | 0.00 | 0.00 | 0.00 | 69 | 1024.9 |
| 20260504180709 | 18 | 186 | 0.0 | 0.0 | 0.00 | 0.00 | 0.00 | 69 | 1025.0 |
| 20260504180207 | 19 | 186 | 0.0 | 1.6 | 0.00 | 0.00 | 0.00 | 66 | 1024.9 |
| 20260504175704 | 19 | 184 | 1.6 | 3.2 | 0.00 | 0.00 | 0.00 | 64 | 1025.1 |
| 20260504175200 | 18 | 187 | 1.6 | 4.8 | 0.00 | 0.00 | 0.00 | 66 | 1025.2 |
| 20260504174658 | 18 | 188 | 3.2 | 4.8 | 0.00 | 0.00 | 0.00 | 65 | 1025.1 |
| 20260504174155 | 17 | 210 | 0.0 | 1.6 | 0.00 | 0.00 | 0.00 | 71 | 1025.2 |
| 20260504173652 | 18 | 191 | 0.0 | 4.8 | 0.00 | 0.00 | 0.00 | 71 | 1025.1 |
| 20260504173149 | 17 | 215 | 0.0 | 0.0 | 0.00 | 0.00 | 0.00 | 70 | 1025.3 |
| 20260504172646 | 17 | 278 | 0.0 | 1.6 | 0.00 | 0.00 | 0.00 | 72 | 1025.2 |
| 20260504172142 | 17 | 181 | 0.0 | 1.6 | 0.00 | 0.00 | 0.00 | 71 | 1025.2 |
| 20260504171639 | 17 | 189 | 0.0 | 0.0 | 0.00 | 0.00 | 0.00 | 70 | 1025.2 |
| 20260504171136 | 18 | 190 | 0.0 | 1.6 | 0.00 | 0.00 | 0.00 | 69 | 1025.1 |
| 20260504170632 | 18 | 196 | 0.0 | 1.6 | 0.00 | 0.00 | 0.00 | 67 | 1025.2 |
| 20260504170130 | 18 | 183 | 0.0 | 0.0 | 0.00 | 0.00 | 0.00 | 69 | 1025.0 |
| 20260504151016 | 15 | 192 | 0.0 | 3.2 | 0.00 | 0.00 | 0.00 | 79 | 1024.4 |
| 20260504150513 | 15 | 247 | 0.0 | 0.0 | 0.00 | 0.00 | 0.00 | 80 | 1024.4 |
| 20260504140939 | 12 | 200 | 0.0 | 0.0 | 0.00 | 0.00 | 0.00 | 85 | 1023.7 |
| 20260504140435 | 12 | 179 | 0.0 | 0.0 | 0.00 | 0.00 | 0.00 | 85 | 1023.6 |
| 20260504130400 | 12 | 202 | 0.0 | 0.0 | 0.00 | 0.00 | 0.00 | 80 | 1022.6 |
| 20260504110248 | 12 | 193 | 0.0 | 0.0 | 0.00 | 0.00 | 0.00 | 80 | 1020.8 |
| 20260504100205 | 13 | 195 | 1.6 | 1.6 | 0.00 | 0.00 | 0.00 | 78 | 1020.5 |
| 20260504090128 | 16 | 207 | 0.0 | 0.0 | 0.00 | 0.00 | 0.00 | 66 | 1020.1 |
| 20260504081558 | 18 | 83 | 3.2 | 4.8 | 0.00 | 0.00 | 0.00 | 58 | 1020.1 |
| 20260504081054 | 18 | 108 | 0.0 | 3.2 | 0.00 | 0.00 | 0.00 | 58 | 1019.7 |
| 20260504080551 | 18 | 178 | 0.0 | 4.8 | 0.00 | 0.00 | 0.00 | 57 | 1019.9 |